Regional Weather Roundup
Issued by NWS

Home | Current Version | Previous Version | Graphics & Text | Print | Product List | Glossary Off
Versions: 1 2 3 4 5 6 7 8 9 10 11 12 13 14 15 16 17 18 19 20 21 22 23 24 25 26 27 28 29 30 31 32 33 34 35 36 37 38 39 40 41 42 43 44 45 46 47 48 49 50

842
ASUS43 KFSD 290210
RWRSD

WEATHER ROUNDUP FOR SOUTH DAKOTA
NATIONAL WEATHER SERVICE SIOUX FALLS SD
900 PM CDT FRI APR 28 2017

NOTE: "FAIR" INDICATES FEW OR NO CLOUDS BELOW 12,000 FEET WITH NO
SIGNIFICANT WEATHER AND/OR OBSTRUCTIONS TO VISIBILITY.


SDZ001>005-009-010-012>017-290300-
NORTHWEST AND NORTH CENTRAL SOUTH DAKOTA

CITY           SKY/WX    TMP DP  RH WIND       PRES   REMARKS
BUFFALO          N/A     46  25  43 E9        30.07R
FAITH            N/A     46  19  34 E5        30.13R
MOBRIDGE       MOCLDY    47  13  25 NE8       30.09R
$$

SDZ012>016-024>037-041>051-057-063-072>074-290300-
SOUTHWEST AND SOUTH CENTRAL SOUTH DAKOTA

CITY           SKY/WX    TMP DP  RH WIND       PRES   REMARKS
RAPID CTY ARPT CLOUDY    40  28  62 NE6       30.12R
PIERRE         CLOUDY    45  18  34 E5        30.11R
CUSTER         CLOUDY    32  23  69 NE6       30.09R WCI  26
ELLSWORTH AFB  CLOUDY    44  27  51 E5        30.12R
PHILIP         MOCLDY    43  24  47 NE6       30.12R
PINE RIDGE     CLOUDY    41  28  60 N7        30.08R
SPEARFISH      FAIR      39  28  65 CALM      30.13R
WINNER         FAIR      47  27  45 NE10      30.08R
$$

SDZ004>011-016>023-039-040-290300-
NORTHEAST SOUTH DAKOTA

CITY           SKY/WX    TMP DP  RH WIND       PRES   REMARKS
ABERDEEN       PTCLDY    44  22  41 NE6       30.10R
WATERTOWN      CLOUDY    42  19  39 NE10      30.06R
BROOKINGS      CLEAR     43  24  47 NE8       30.07R
SISSETON         N/A     42  23  46 NE10      30.09R
$$

SDZ017-020-022-023-036>040-048>070-290300-
SOUTHEAST SOUTH DAKOTA

CITY           SKY/WX    TMP DP  RH WIND       PRES   REMARKS
SIOUX FALLS    PTCLDY    41  31  67 NE7       30.07R
HURON          PTCLDY    42  21  43 NE7       30.10R
CHAMBERLAIN    CLOUDY    47  22  37 N7        30.10R
MITCHELL       PTCLDY    43  25  49 NE8       30.10R
YANKTON        CLOUDY    46  28  49 N10       30.04S
$$

ABBREVIATIONS USED IN REMARKS
   TC - TEMPERATURE IN CELSIUS
  WCI - WIND CHILL INDEX
   HX - HEAT INDEX
  VSB - VISIBILITY





USA.gov is the U.S. government's official web portal to all federal, state and local government web resources and services.